Location: Cardiff
(53.7833°N, 113.6000°W)
Time: 16:11:34
(UTC+00:00)

RS-15 - Pass Details

Date: 09 December 2023
Orbit: 1893 x 2151 km, 64.8° (Epoch: 27 February)

Event Time Altitude Azimuth Distance (km) Brightness Sun altitude
Exits shadow 11:00:46 76° 333° (NNW) 2,020 7.8 -39.5°
Maximum altitude 11:01:53 85° 44° (NE) 1,975 7.8 -39.4°
Drops below altitude 10° 11:12:58 10° 134° (SE) 4,300 10.1 -37.8°
Sets 11:16:09 0° 135° (SE) 5,281 10.7 -37.3°
